This demonstration page uses our WeatherBlox Daily Observations layout. Learn more.

40.92945, -100.16068

Hourly Observations for October 25, 2020

Temp ( °F °C ) Dew Point ( °F °C ) Humidity (%) Winds ( mph kmh ) Pressure ( in mb ) Visibility ( mi km ) Precip ( " mm )
12:15 am 00:15 Cloudy 30 -1.3 25 -4 82 82 ENE 12 19 30.27 1025 10 16.0934 0 0
12:35 am 00:35 Cloudy 29 -1.5 25 -4.1 83 83 ENE 9 15 30.28 1025 10 16.0934 0 0
12:55 am 00:55 Cloudy 29 -1.5 25 -4.1 83 83 NE 8 13 30.27 1025 10 16.0934 0 0
1:15 am 01:15 Cloudy 29 -1.5 25 -4.1 83 83 ENE 12 19 30.27 1025 10 16.0934 0 0
1:35 am 01:35 Cloudy 30 -1.3 25 -4 82 82 NE 8 13 30.29 1026 10 16.0934 0 0
1:55 am 01:55 Cloudy 30 -1.3 25 -3.7 84 84 ENE 10 17 30.29 1026 10 16.0934 0 0
2:15 am 02:15 Cloudy 29 -1.4 26 -3.6 85 85 NE 12 19 30.28 1025 10 16.0934 0 0
2:35 am 02:35 Cloudy 29 -1.7 26 -3.5 88 88 NE 13 20 30.28 1026 7 11.26538 0 0
2:55 am 02:55 Cloudy 28 -2.1 26 -3.6 90 90 ENE 13 20 30.3 1026 7 11.26538 0 0
3:15 am 03:15 Cloudy 27 -2.8 23 -5.1 84 84 NE 10 17 30.31 1026 10 16.0934 0 0
3:35 am 03:35 Cloudy 26 -3.2 22 -5.5 84 84 ENE 10 17 30.32 1027 10 16.0934 0 0
3:55 am 03:55 Cloudy 26 -3.1 22 -5.5 84 84 NE 9 15 30.33 1027 10 16.0934 0 0
4:15 am 04:15 Cloudy 26 -3.2 23 -5 88 88 NE 9 15 30.33 1027 10 16.0934 0 0
4:35 am 04:35 Cloudy 26 -3.3 23 -4.9 89 89 NE 9 15 30.33 1027 10 16.0934 0 0
4:55 am 04:55 Cloudy 26 -3.4 24 -4.6 92 92 NNE 7 11 30.33 1027 7 11.26538 0 0
5:15 am 05:15 Cloudy 26 -3.5 23 -4.8 91 91 NE 9 15 30.34 1028 10 16.0934 0 0
5:35 am 05:35 Cloudy 26 -3.5 23 -4.8 91 91 NE 9 15 30.34 1028 10 16.0934 0 0
5:55 am 05:55 Cloudy 26 -3.5 23 -5 89 89 NNE 10 17 30.35 1028 10 16.0934 0 0
6:15 am 06:15 Cloudy 26 -3.6 23 -5.1 89 89 NNE 9 15 30.35 1028 10 16.0934 0 0
6:35 am 06:35 Cloudy 26 -3.6 23 -5.1 89 89 NNE 10 17 30.35 1028 10 16.0934 0 0
6:55 am 06:55 Cloudy 26 -3.6 23 -5.2 89 89 NNE 9 15 30.36 1028 10 16.0934 0 0
7:15 am 07:15 Cloudy 25 -3.7 22 -5.5 87 87 NNE 12 19 30.37 1028 10 16.0934 0 0
7:35 am 07:35 Cloudy 25 -3.8 22 -5.6 87 87 NNE 9 15 30.39 1029 10 16.0934 0 0
7:55 am 07:55 Cloudy 25 -3.8 22 -5.7 87 87 NNE 12 19 30.38 1029 10 16.0934 0 0
8:15 am 08:15 Cloudy 25 -4 21 -6 86 86 N 15 24 30.39 1029 10 16.0934 0 0
8:35 am 08:35 Cloudy 25 -4 21 -6.3 84 84 NNE 15 24 30.4 1029 10 16.0934 0 0
8:55 am 08:55 Cloudy 25 -3.9 21 -6.2 84 84 NNE 14 22 30.41 1030 10 16.0934 0 0
9:15 am 09:15 Cloudy 25 -4 20 -6.5 83 83 NNE 18 30 30.42 1030 10 16.0934 0 0
9:35 am 09:35 Cloudy 25 -4 20 -6.6 82 82 NNE 15 24 30.43 1030 10 16.0934 0 0
9:55 am 09:55 Cloudy 25 -3.8 20 -6.7 81 81 NNE 17 28 30.44 1031 10 16.0934 0 0
10:15 am 10:15 Cloudy 26 -3.5 20 -6.7 79 79 NNE 16 26 30.43 1031 10 16.0934 0 0
10:35 am 10:35 Cloudy 26 -3.2 19 -7 75 75 NNE 21 33 30.42 1030 10 16.0934 0 0
10:55 am 10:55 Cloudy 27 -3 19 -7.4 72 72 N 22 35 30.43 1030 10 16.0934 0 0
11:15 am 11:15 Cloudy 27 -2.9 19 -7.5 71 71 N 22 35 30.44 1031 10 16.0934 0 0
11:35 am 11:35 Cloudy 27 -2.9 18 -7.7 70 70 NNE 20 31 30.44 1031 10 16.0934 0 0
11:55 am 11:55 Cloudy 27 -2.8 18 -7.8 69 69 N 20 31 30.44 1031 10 16.0934 0 0
12:15 pm 12:15 Cloudy 27 -2.7 18 -8 67 67 N 20 31 30.44 1031 10 16.0934 0 0
12:35 pm 12:35 Cloudy 27 -2.6 17 -8.2 66 66 N 20 31 30.43 1031 10 16.0934 0 0
12:55 pm 12:55 Cloudy 27 -3 17 -8.3 67 67 NNE 18 30 30.44 1031 10 16.0934 0 0
1:15 pm 13:15 Cloudy 27 -3 17 -8.5 66 66 N 20 31 30.44 1031 10 16.0934 0 0
1:35 pm 13:35 Cloudy 27 -2.9 16 -8.8 64 64 NNE 21 33 30.42 1030 10 16.0934 0 0
1:55 pm 13:55 Cloudy 27 -2.7 16 -8.8 63 63 NNE 17 28 30.42 1030 10 16.0934 0 0
2:15 pm 14:15 Cloudy 27 -2.8 17 -8.6 65 65 NNE 18 30 30.41 1030 10 16.0934 0 0
2:35 pm 14:35 Cloudy 26 -3.1 17 -8.6 66 66 N 17 28 30.41 1030 10 16.0934 0 0
2:55 pm 14:55 Cloudy 27 -3 15 -9.2 63 63 NNE 18 30 30.4 1029 10 16.0934 0 0
3:15 pm 15:15 Cloudy 26 -3.2 16 -9 65 65 N 20 31 30.4 1029 10 16.0934 0 0
3:35 pm 15:35 Cloudy 26 -3.4 16 -9 66 66 NNE 18 30 30.41 1030 10 16.0934 0 0
3:55 pm 15:55 Cloudy 26 -3.6 16 -8.7 68 68 N 15 24 30.42 1030 10 16.0934 0 0
4:15 pm 16:15 Cloudy with Light Snow 25 -3.8 17 -8.4 71 71 NNE 14 22 30.43 1030 4 6.43736 0 0
4:35 pm 16:35 Cloudy 25 -3.8 17 -8.4 71 71 N 17 28 30.43 1030 10 16.0934 0 0
4:55 pm 16:55 Cloudy 25 -4 17 -8.6 71 71 N 20 31 30.45 1031 10 16.0934 0 0
5:15 pm 17:15 Windy with Snow Likely 24 -4.2 17 -8.1 75 75 N 20 31 30.46 1032 5 8.0467 0 0
5:35 pm 17:35 Cloudy 24 -4.3 17 -8.1 75 75 N 17 28 30.45 1031 10 16.0934 0 0
5:55 pm 17:55 Cloudy 24 -4.6 17 -8.1 77 77 NNE 16 26 30.47 1032 10 16.0934 0 0
6:15 pm 18:15 Cloudy 24 -4.7 17 -8.6 74 74 NNE 16 26 30.47 1032 10 16.0934 0 0
6:35 pm 18:35 Cloudy with Light Snow 23 -4.8 18 -8 79 79 N 15 24 30.48 1032 10 16.0934 0 0
6:55 pm 18:55 Cloudy with Light Snow 23 -5 18 -7.7 82 82 N 15 24 30.49 1032 7 11.26538 0 0
7:15 pm 19:15 Cloudy with Light Snow 23 -5.2 18 -8 81 81 N 15 24 30.5 1033 7 11.26538 0 0
7:35 pm 19:35 Cloudy with Light Snow 22 -5.5 18 -7.7 85 85 N 14 22 30.51 1033 2.5 4.02335 0 0
7:55 pm 19:55 Cloudy with Light Snow 22 -5.5 18 -7.6 85 85 N 14 22 30.52 1034 3 4.82802 0 0
8:15 pm 20:15 Cloudy with Light Snow 22 -5.6 18 -7.6 86 86 NNE 13 20 30.53 1034 2 3.21868 0 0
8:35 pm 20:35 Cloudy with Light Snow 22 -5.6 18 -8 83 83 NNE 15 24 30.53 1034 2.5 4.02335 0 0
8:55 pm 20:55 Cloudy with Light Snow 22 -5.7 19 -7.5 87 87 N 14 22 30.55 1034 3 4.82802 0 0
9:15 pm 21:15 Cloudy with Light Snow 21 -5.9 18 -8 85 85 N 15 24 30.53 1034 5 8.0467 0 0
9:35 pm 21:35 Cloudy with Light Snow 21 -6 17 -8.4 83 83 N 18 30 30.53 1034 5 8.0467 0 0
9:55 pm 21:55 Cloudy with Light Snow 21 -6.3 17 -8.5 85 85 NNE 18 30 30.55 1035 2 3.21868 0 0
10:15 pm 22:15 Cloudy with Light Snow 20 -6.4 16 -8.7 84 84 NNE 16 26 30.55 1035 4 6.43736 0 0
10:35 pm 22:35 Cloudy with Light Snow 20 -6.5 16 -9.1 82 82 NNE 12 19 30.57 1035 7 11.26538 0 0
10:55 pm 22:55 Cloudy with Light Snow 20 -6.6 16 -9.1 83 83 N 12 19 30.57 1035 2.5 4.02335 0 0
11:15 pm 23:15 Cloudy with Light Snow 20 -6.7 16 -8.8 85 85 N 12 19 30.6 1036 2.5 4.02335 0 0
11:35 pm 23:35 Cloudy with Light Snow 20 -6.8 16 -8.8 86 86 N 13 20 30.61 1037 2 3.21868 0 0
11:55 pm 23:55 Cloudy with Light Snow 19 -7 17 -8.6 89 89 N 9 15 30.61 1037 2 3.21868 0 0

Powered by AerisWeather